Location: Malvern Link
(52.1333°N, 2.3000°W)
Time: 11:18:59
(UTC+00:00)

Resurs 1-3 - Pass Details

Date: 18 September 2020
Orbit: 630 x 632 km, 97.9° (Epoch: 25 October)

Event Time Altitude Azimuth Distance (km) Brightness Sun altitude
Exits shadow 20:01:13 24° 150° (SSE) 1,314 4.8 -16.4°
Maximum altitude 20:03:48 69° 72° (ENE) 682 3.5 -16.8°
Drops below altitude 10° 20:08:11 10° 350° (N) 2,027 6.7 -17.4°
Sets 20:10:24 0° 348° (NNW) 2,940 7.6 -17.7°
